START 1 DEB

Satellite information

Favourite Embed

Satellite Type and Status

DEBRISIN ORBIT

Key statistics

Satellite START 1 DEB at a glance.

Uptime

11792

Days in orbit

Revolutions

≈ 14.3

Per day

Orbit

LEO

Low Earth Orbit

Inclination

75.8

Latest

Satellite identification and parameters

Extended collection of information and parameters for START 1 DEB.

Object identification

Identified? True

Debris? True

Object name: START 1 DEB

International designator: 1993-014G

Object number (NORAD): 27752

Object ID (CCSDS): 27752

Country: COMMONWEALTH OF INDEPENDENT STATES (CIS)

Current information (Y/N): Y

RCS size: SMALL

Orbital parameters

Period: 100.798 minutes

Inclination: 75.7601 deg

SMA: 7174.566 km

Apoapsis: 924.659 km

Periapsis: 668.203 km

RAAN: 124.5289 deg

Eccentricy: 0.0178726

Argument of periapsis: 122.305 deg

Mean anomaly: 239.5561 deg

Mean motion: 14.28595648 rev/day

Mean motion (dot): 0.00000336 rev/day2

B* drag term: 0.00011726 1/REarth

Two-line elements (TLE)

Creation date: July 5, 2025, 5:45 p.m.

Reference frame: TEME

Reference center: EARTH

Epoch: July 5, 2025, 12:28 p.m. UTC

TLE line 0: 0 START 1 DEB

TLE line 1: 1 27752U 93014G 25186.51979280 .00000336 00000-0 11726-3 0 9995

TLE line 2: 2 27752 75.7601 124.5289 0178726 122.3050 239.5561 14.28595648209381

Live tracking on map

Real-time ground track for satellite START 1 DEB.

In-orbit conjunctions

A list of the most updated potential collisions computed for object START 1 DEB.

Target Orbit TCA Probability of collision Miss distance Type
IRIDIUM 33 DEB LEO 2025-06-30 18:39:51 0.0001097749 187.0 (m) DEBRIS
CZ-6A DEB LEO 2024-10-31 09:55:15 0.0002945705 354.0 (m) DEBRIS

Associated space launch

EKA 1 and 2 were vehicle evaluation payloads on the maiden flights of the Start-1 and Start launch vehicles.

START 1 DEB was lifted into orbit during the mission ‘Start-1 | EKA-1’, on board a Start-1 space rocket.

The launch took place on March 25, 1993, 1:15 p.m. from 158.

For more information about the launch, click the button.

Launch to space Start-1 | EKA-1
Start-1 | EKA-1

Agency: N/A

Status: Launch Successful

Launch date: March 25, 1993, 1:15 p.m. UTC

Rocket: Start-1

Launch pad: 158

Location: Plesetsk Cosmodrome, Russian Federation

...

Latest news about this satellite

There are no fresh news available about this satellite. Check back as we update our databases every day.


Newsletter sign-up

Weekly statistics, charts and insights to help you stay on top of the space industry.